User: anonymous   Login
Location: Unspecified
(0.0000°N, 0.0000°E)
Time: 19:02:31
(UTC+00:00)
Language:

XW-2B - Orbit

View from above orbital plane
View from above orbital plane
View from above satellite
View from above satellite

Ground track
Ground track

The orbit data is extracted from the following two-line orbital elements,

1 40911U 15049N   18113.54315944  .00000781  00000-0  45024-4 0  9998
2 40911  97.4615 118.2591 0013348 212.1494 147.8926 15.15210779143124
Epoch (UTC): 23 April 2018 13:02:08
Eccentricity: 0.0013348
inclination: 97.4615°
perigee height: 511 km
apogee height: 529 km
right ascension of ascending node: 118.2591°
argument of perigee: 212.1494°
revolutions per day: 15.15210779
mean anomaly at epoch: 147.8926°
orbit number at epoch: 14312

The dashed part of the orbit path shows where the satellite is in the earth's shadow,  

DLR